(205159) = 1999 XE236 = 2003 UG27

Discovered at Catalina on 1999-12-04 by CSS.

Orbit

Orbit type: Main Belt

Note: WebGL enabled browser required.

epoch2022-01-21.0
epoch JD2459600.5
perihelion date2020-02-22.70845
perihelion JD2458902.20845
argument of perihelion (°)285.31757
ascending node (°)68.10328
inclination (°)12.14050
eccentricity0.0580721
perihelion distance (AU)2.4464247
Tisserand w.r.t. Jupiter3.4
ΔV w.r.t. Earth (km/sec)10.5
semimajor axis (AU)2.5972526
mean anomaly (°)164.42557
mean daily motion (°/day)0.23546840
aphelion distance (AU)2.748
period (years)4.19
P-vector [x]0.97340001
P-vector [y]-0.01705575
P-vector [z]-0.22847652
Q-vector [x]0.12005749
Q-vector [y]0.88731906
Q-vector [z]0.44525396
absolute magnitude15.95
phase slope0.15
uncertainty0
referenceMPO 695360
observations used507
oppositions16
arc length (days)8185
first opposition used1999
last opposition used2022
residual rms (arc-secs)0.81
perturbers coarse indicatorM-v
perturbers precise indicator003Ek
first observation date used1999-12-04.0
last observation date used2022-05-02.0
computer namePan
JD of orbit computation2456937.531243
perihelion JD uncertainty (days)2.0412E-04
argument of perihelion uncertainty (°)5.3717E-05
ascending node uncertainty (°)2.8471E-05
inclination uncertainty (°)6.4708E-06
eccentricity uncertainty 7.1935E-08
perihelion distance uncertainty (AU)2.0044E-07
Minimum Orbit Intersection Distances (in AU)
for orbit epoch: 2458200.5, reference: MPO433343
Mercury2.04872
Venus1.72634
Earth1.47165
Mars1.03206
Jupiter2.48691
Saturn6.47853
Uranus15.5021
Neptune27.3314

Observations

521 total observations over interval: 1999 12 04.31520 – 2022 05 25.211337
These data are available for download (format description).

Date (UT) J2000 RA J2000 Dec Magn Location Ref
1999 12 04.31520 03 26 26.06 +15 58 26.3 19.1 R 703 – Catalina Sky Survey MPS 15646
1999 12 04.33528 03 26 24.87 +15 58 28.9 19.5 R 703 – Catalina Sky Survey MPS 15646
1999 12 04.34743 03 26 24.19 +15 58 29.6 19.1 R 703 – Catalina Sky Survey MPS 15646
1999 12 04.35953 03 26 23.44 +15 58 31.6 19.4 R 703 – Catalina Sky Survey MPS 15646
1999 12 07.21989 03 23 46.33 +16 04 50.2 19.4   704 – Lincoln Laboratory ETS, New Mexico MPS 15646
1999 12 07.23447 03 23 45.46 +16 04 51.6 19.2   704 – Lincoln Laboratory ETS, New Mexico MPS 15646
1999 12 07.26359 03 23 43.80 +16 04 55.1 19.2   704 – Lincoln Laboratory ETS, New Mexico MPS 15646
1999 12 07.27814 03 23 42.96 +16 04 56.5 19.7   704 – Lincoln Laboratory ETS, New Mexico MPS 15646
1999 12 18.07634 03 15 32.72 +16 32 58.8 19.9 V 691 – Steward Observatory, Kitt Peak-Spacewatch MPS 34159
1999 12 18.09835 03 15 31.88 +16 33 02.7 19.8 V 691 – Steward Observatory, Kitt Peak-Spacewatch MPS 34159
1999 12 18.12074 03 15 31.03 +16 33 06.7 20.0 V 691 – Steward Observatory, Kitt Peak-Spacewatch MPS 34159
2003 10 18.36079 02 33 24.62 +02 24 02.7 19.9   608 – Haleakala-AMOS MPS 89605
2003 10 18.37132 02 33 24.02 +02 24 01.8 20.2   608 – Haleakala-AMOS MPS 89605
2003 10 18.38223 02 33 23.36 +02 24 01.5 20.6   608 – Haleakala-AMOS MPS 89605
2003 10 19.29529 02 32 31.68 +02 22 49.5 20.6 R 683 – Goodricke-Pigott Observatory, Tucson MPS 89605
2003 10 19.30870 02 32 31.05 +02 22 48.4 20.7 R 683 – Goodricke-Pigott Observatory, Tucson MPS 89605
2003 10 19.32209 02 32 30.10 +02 22 46.8 20.4 R 683 – Goodricke-Pigott Observatory, Tucson MPS 89605
2003 10 21.28851 02 30 36.88 +02 20 27.7 20.6 R 683 – Goodricke-Pigott Observatory, Tucson MPS 89605
2003 10 21.30191 02 30 36.06 +02 20 26.8 21.2 R 683 – Goodricke-Pigott Observatory, Tucson MPS 89605
2003 10 21.31529 02 30 35.11 +02 20 27.5 20.4 R 683 – Goodricke-Pigott Observatory, Tucson MPS 89605
2003 10 22.28506 02 29 38.38 +02 19 27.4 19.3 V 691 – Steward Observatory, Kitt Peak-Spacewatch MPS 89606
2003 10 22.28510 02 29 38.43 +02 19 27.0 20.7 R 683 – Goodricke-Pigott Observatory, Tucson MPS 88354
2003 10 22.29850 02 29 37.54 +02 19 26.4 20.5 R 683 – Goodricke-Pigott Observatory, Tucson MPS 88354
2003 10 22.31187 02 29 36.74 +02 19 25.3 20.9 R 683 – Goodricke-Pigott Observatory, Tucson MPS 88354
2003 10 22.31364 02 29 36.64 +02 19 25.5 19.4 V 691 – Steward Observatory, Kitt Peak-Spacewatch MPS 89606
2003 10 22.34042 02 29 35.00 +02 19 23.9 19.3 V 691 – Steward Observatory, Kitt Peak-Spacewatch MPS 89606
2003 10 23.28169 02 28 39.28 +02 18 31.0 21.1 R 683 – Goodricke-Pigott Observatory, Tucson MPS 88354
2003 10 23.29510 02 28 38.62 +02 18 28.5 21.1 R 683 – Goodricke-Pigott Observatory, Tucson MPS 88354
2003 10 23.30846 02 28 37.66 +02 18 28.5 20.8 R 683 – Goodricke-Pigott Observatory, Tucson MPS 88354
2003 10 24.27827 02 27 39.83 +02 17 37.5 20.5 R 683 – Goodricke-Pigott Observatory, Tucson MPS 88354
2003 10 24.29170 02 27 39.11 +02 17 36.3 20.5 R 683 – Goodricke-Pigott Observatory, Tucson MPS 88354
2003 10 24.30505 02 27 38.28 +02 17 35.2 21.7 R 683 – Goodricke-Pigott Observatory, Tucson MPS 88354
2003 10 27.26799 02 24 39.03 +02 15 40.8 20.7 R 683 – Goodricke-Pigott Observatory, Tucson MPS 89606
2003 10 27.28141 02 24 38.23 +02 15 40.8 20.5 R 683 – Goodricke-Pigott Observatory, Tucson MPS 89606
2003 10 27.29477 02 24 37.33 +02 15 43.6 21.7 R 683 – Goodricke-Pigott Observatory, Tucson MPS 89606
2003 11 26.19658 01 58 05.70 +03 03 54.4 19.6 R 699 – Lowell Observatory-LONEOS MPS 91863
2003 11 26.21637 01 58 05.00 +03 03 58.7   699 – Lowell Observatory-LONEOS MPS 91863
2003 11 26.23614 01 58 04.17 +03 04 03.4   699 – Lowell Observatory-LONEOS MPS 91863
2003 11 26.25585 01 58 03.49 +03 04 08.3   699 – Lowell Observatory-LONEOS MPS 91863
2005 03 08.25874 09 50 30.03 +32 03 51.9 19.2 R 703 – Catalina Sky Survey MPS 178200
2005 03 08.26730 09 50 29.46 +32 03 51.3 18.7 R 703 – Catalina Sky Survey MPS 178200
2005 03 08.27586 09 50 29.20 +32 03 51.5 18.9 R 703 – Catalina Sky Survey MPS 178200
2005 03 08.28441 09 50 28.69 +32 03 51.2 19.9 R 703 – Catalina Sky Survey MPS 178200
2006 04 26.45404 16 37 45.55 -18 49 31.5 19.4 V G96 – Mt. Lemmon Survey MPS 169798
2006 04 26.45911 16 37 45.40 -18 49 32.1 19.4 V G96 – Mt. Lemmon Survey MPS 169798
2006 04 26.46921 16 37 45.04 -18 49 33.2 19.6 V G96 – Mt. Lemmon Survey MPS 169798
2006 05 19.35157 16 19 01.56 -19 39 29.2 19.0 V G96 – Mt. Lemmon Survey MPS 171888
2006 05 19.35975 16 19 01.05 -19 39 30.7 18.8 V G96 – Mt. Lemmon Survey MPS 171888
2006 05 19.36784 16 19 00.51 -19 39 31.2 18.9 V G96 – Mt. Lemmon Survey MPS 171888
2007 09 14.34760 01 20 22.45 -10 40 29.4 19.4 V 703 – Catalina Sky Survey MPS 215962
2007 09 14.35410 01 20 22.16 -10 40 31.4 19.2 V 703 – Catalina Sky Survey MPS 215962
2007 09 14.36065 01 20 21.87 -10 40 33.4 19.4 V 703 – Catalina Sky Survey MPS 215962
2007 09 14.36718 01 20 21.66 -10 40 35.3 19.0 V 703 – Catalina Sky Survey MPS 215962
2007 10 12.32782 00 55 58.29 -12 14 46.5 18.5 V G96 – Mt. Lemmon Survey MPS 220150
2007 10 12.33074 00 55 58.15 -12 14 46.6 18.5 V G96 – Mt. Lemmon Survey MPS 220150
2007 10 12.33376 00 55 57.97 -12 14 46.8 18.5 V G96 – Mt. Lemmon Survey MPS 220150
2007 10 12.33674 00 55 57.79 -12 14 46.9 18.6 V G96 – Mt. Lemmon Survey MPS 220150
2007 10 19.26966 00 49 33.56 -12 15 11.0 19.1 V 703 – Catalina Sky Survey MPS 222363
2007 10 19.27784 00 49 33.16 -12 15 11.1 19.0 V 703 – Catalina Sky Survey MPS 222363
2007 10 19.28609 00 49 32.73 -12 15 11.6 19.2 V 703 – Catalina Sky Survey MPS 222363
2007 10 19.29427 00 49 32.30 -12 15 10.8 19.6 V 703 – Catalina Sky Survey MPS 222363
2007 11 11.17314 00 34 24.74 -10 56 31.8 19.4 V 703 – Catalina Sky Survey MPS 226672
2007 11 11.18026 00 34 24.67 -10 56 29.2 20.3 V 703 – Catalina Sky Survey MPS 226672
2007 11 11.18738 00 34 24.45 -10 56 26.1 19.9 V 703 – Catalina Sky Survey MPS 226672
2007 11 11.19448 00 34 24.16 -10 56 23.7 20.3 V 703 – Catalina Sky Survey MPS 226672
2009 01 15.28622 08 58 07.71 +33 19 00.1 20.0   704 – Lincoln Laboratory ETS, New Mexico MPS 272179
2009 01 15.29868 08 58 07.10 +33 19 08.4 19.8   704 – Lincoln Laboratory ETS, New Mexico MPS 272179
2009 01 15.31111 08 58 06.30 +33 19 13.4 19.5   704 – Lincoln Laboratory ETS, New Mexico MPS 272179
2009 01 15.32355 08 58 05.58 +33 19 18.3 20.0   704 – Lincoln Laboratory ETS, New Mexico MPS 272179
2009 01 20.43494 08 53 01.32 +33 57 01.3 19.5 V 703 – Catalina Sky Survey MPS 272179
2009 01 20.44153 08 53 00.81 +33 57 04.0 19.2 V 703 – Catalina Sky Survey MPS 272179
2009 01 20.44802 08 53 00.52 +33 57 06.1 19.5 V 703 – Catalina Sky Survey MPS 272179
2009 01 20.45462 08 53 00.06 +33 57 09.3 19.5 V 703 – Catalina Sky Survey MPS 272179
2009 01 24.55515 08 48 42.61 +34 24 28.4 18.8 R D29 – Purple Mountain Observatory, XuYi Station MPS 272179
2009 01 24.56747 08 48 41.82 +34 24 33.8 18.5 R D29 – Purple Mountain Observatory, XuYi Station MPS 272179
2009 01 24.57907 08 48 41.11 +34 24 38.7 18.9 R D29 – Purple Mountain Observatory, XuYi Station MPS 272179
2009 01 24.59047 08 48 40.30 +34 24 43.4 19.1 R D29 – Purple Mountain Observatory, XuYi Station MPS 272179
2009 01 29.27495 08 43 37.88 +34 52 01.3 19.4 V 703 – Catalina Sky Survey MPS 272179
2009 01 29.27973 08 43 37.66 +34 52 01.5 19.5 V 703 – Catalina Sky Survey MPS 272179
2009 01 29.28451 08 43 37.23 +34 52 03.9 19.6 V 703 – Catalina Sky Survey MPS 272179
2009 01 29.28938 08 43 36.98 +34 52 06.4 19.6 V 703 – Catalina Sky Survey MPS 272179
2009 02 02.27242 08 39 20.12 +35 11 38.3 19.3   704 – Lincoln Laboratory ETS, New Mexico MPS 272179
2009 02 02.28467 08 39 19.11 +35 11 40.7 19.3   704 – Lincoln Laboratory ETS, New Mexico MPS 272179
2009 02 02.29696 08 39 18.32 +35 11 43.3 19.7   704 – Lincoln Laboratory ETS, New Mexico MPS 272179
2009 02 02.30925 08 39 17.73 +35 11 48.0 19.5   704 – Lincoln Laboratory ETS, New Mexico MPS 272179
2009 02 02.32155 08 39 16.71 +35 11 50.6 20.1   704 – Lincoln Laboratory ETS, New Mexico MPS 272179
2009 02 04.17470 08 37 19.48 +35 19 39.9 19.5 V 703 – Catalina Sky Survey MPS 272179
2009 02 04.18397 08 37 18.91 +35 19 43.3 19.8 V 703 – Catalina Sky Survey MPS 272179
